Regional Weather Roundup
Issued by NWS

Home | Current Version | Previous Version | Text Only | Print | Product List | Glossary On
Versions: 1 2 3 4 5 6 7 8 9 10 11 12 13 14 15 16 17 18 19 20 21 22 23 24 25 26 27 28 29 30 31 32 33 34 35 36 37 38 39 40 41 42 43 44 45 46 47 48 49 50
000
ASUS44 KEWX 070711
RWRTX
SOUTH TEXAS REGIONAL WEATHER ROUNDUP
NATIONAL WEATHER SERVICE AUSTIN/SAN ANTONIO TX
200 AM CDT THU MAY 07 2015

NOTE: "FAIR" INDICATED FEW OR NO CLOUDS BELOW 12,000 FEET WITH NO
SIGNIFICANT WEATHER AND/OR OBSTRUCTIONS TO VISIBILITY.

* - THESE STATIONS ARE NOT NWS OR FAA STATIONS...AND ARE NOT SUBJECT
    TO NWS AND FAA QUALITY CONTROL.

TXZ171-172-183>190-070800-
TEXAS HILL COUNTRY AND EDWARDS PLATEAU

CITY           SKY/WX    TMP DP  RH WIND       PRES   REMARKS
JUNCTION       MOCLDY    72  65  78 SE12      29.87F
*LLANO         MOCLDY    73  66  78 SE9       29.92F
BURNET         CLOUDY    71  66  84 S8G17     29.94R
*HORSESHOE BAY CLOUDY    72  67  86 S5        29.91F
*KERRVILLE     MOCLDY    72  68  89 SE13      29.90F
*FREDERICKSBRG CLOUDY    70  65  86 SE9       29.91F
*ROCKSPRINGS   CLOUDY    70  68  94 S16       29.90S FOG
*BOERNE STAGE  CLOUDY    70  64  83 S10G16    29.92F
*CASTROVILLE   CLOUDY    73  68  82 SE12G18   29.89F HAZE
HONDO          CLOUDY    73  69  87 SE13      29.89F
*UVALDE        CLOUDY    73  70  91 SE8       29.87S
DEL RIO        CLOUDY    75  69  81 SE13      29.80F
LAUGHLIN AFB   CLOUDY    74  71  89 SE14      29.81F
CARRIZO SPRGS  CLOUDY    72  70  94 E7        29.82S
$$

TXZ173-191>194-202-209-217>225-228-070800-
CENTRAL AND SOUTH CENTRAL TEXAS

CITY           SKY/WX    TMP DP  RH WIND       PRES   REMARKS
GEORGETOWN     CLOUDY    73  70  88 S9        29.91S
AUSTIN/BERGSTM CLOUDY    73  70  90 S9        29.90R
AUSTIN/MABRY   CLOUDY    73  69  87 S7        29.91R
*AUSTIN/EXEC   CLOUDY    72  72 100 S7        29.92R
*LAGO VISTA    CLOUDY    72  68  87 S7G16     29.93R
SAN MARCOS     CLOUDY    72  68  88 S8        29.91R
NEW BRAUNFELS  CLOUDY    74  70  87 S13       29.88S
RANDOLPH AFB   CLOUDY    73  70  91 SE10      29.89S
PT SAN ANTONIO CLOUDY    73  70  88 SE12      29.87F
SAN ANTONIO    CLOUDY    74  69  85 SE13      29.90R
STINSON FIELD  CLOUDY    74  70  87 SE10      29.87F
*PLEASANTON    HVY RAIN  74  69  85 E8        29.88F
*LA GRANGE     PTCLDY    75  72  90 SE8       29.88F
*GIDDINGS      CLOUDY    73  69  87 S6G17     29.94S
*GONZALES      CLOUDY    75  73  92 SE10      29.87F
$$

TXZ163>164-176>182-195>201-210>213-226-227-235-070800-
SOUTHEAST TEXAS

CITY           SKY/WX    TMP DP  RH WIND       PRES   REMARKS
COLLEGE STN    PTCLDY    72  69  90 SE9       29.92F
*BRYAN         CLOUDY    70  70 100 SE7       29.94S
*CALDWELL      CLOUDY    72  72 100 SE7       29.94S
*CROCKETT      NOT AVBL
*BRENHAM       CLOUDY    75  73  93 SE8       29.93S
HUNTSVILLE     MOCLDY    73  69  87 VRB5      29.94F
CONROE         CLOUDY    72  69  90 SE6       29.94F
HOUSTON BUSH   MOCLDY    74  71  91 SE8       29.93S
HOUSTON HOBBY  CLOUDY    76  72  87 SE8       29.92F
*HOUSTON SW AP CLOUDY    78  76  95 SE10G16   29.93F
PEARLAND       CLOUDY    77  72  84 SE13      29.94F
HOUSTON HOOKS  MOCLDY    74  70  87 SE5       29.93F
ELLINGTON FLD  CLOUDY    75  73  94 SE12      29.96S
SUGAR LAND     CLOUDY    75  71  87 SE13      29.91F
*HOUSTON EXEC  PTCLDY    73  72  94 SE9       29.93S
*CLEVELAND MUN CLOUDY    73  71  95 CALM      29.96S
*WHARTON       CLOUDY    74  72  92 SE10      29.91F
*COLUMBUS      CLOUDY    74  71  92 SE9       29.91S
$$

TXZ214>216-236>238-070800-
THE UPPER TEXAS COAST

CITY           SKY/WX    TMP DP  RH WIND       PRES   REMARKS
*ORANGE        PTCLDY    74  69  86 SE8       29.97F
PORT ARTHUR    MOCLDY    75  71  87 SE9       29.95F
GALVESTON      CLOUDY    75  74  96 SE16      29.94F
ANGLETON       CLOUDY    74  73  97 SE13      29.91F
*BAY CITY      CLOUDY    76  75  95 SE8       29.91F
PALACIOS       CLOUDY    77  74  90 SE17      29.89F
$$

TXZ229>234-239>247-070800-
TEXAS COASTAL BEND AND RIO GRANDE PLAINS

CITY           SKY/WX    TMP DP  RH WIND       PRES   REMARKS
VICTORIA       CLOUDY    75  74  96 MISG      29.89F
*BEEVILLE      CLOUDY    74  74 100 SE8       29.87S
ROCKPORT       CLOUDY    78  73  84 SE16G22   29.86F
*PORT ARANSAS  CLOUDY    76  74  96 SE15G21   29.87F
*PORT LAVACA   CLOUDY    75  73  94 SE9       29.89F
*INGLESIDE     CLOUDY    78  74  88 SE16      29.86F
CORPUS CHRISTI MOCLDY    77  73  87 SE16      29.85F
CORPUS NAS     CLOUDY    77  74  90 SE17      29.85F
*ROBSTOWN      PTCLDY    78  75  91 SE10G16   29.85F
ALICE          CLOUDY    76  73  91 SE9       29.84F
KINGSVILLE NAS CLOUDY    78  76  93 SE13      29.84F
COTULLA        CLOUDY    75  68  78 E8        29.84R
*FAITH RANCH   MOCLDY    73  72  94 E7        29.81F
LAREDO         CLOUDY    75  70  85 SE12      29.83F
$$

TXZ248>255-070800-
DEEP SOUTH TEXAS

CITY           SKY/WX    TMP DP  RH WIND       PRES   REMARKS
BROWNSVILLE    CLOUDY    79  75  87 SE13      29.85F
PORT ISABEL    CLOUDY    79  74  84 SE13      29.84F
*SOUTH PADRE   MOCLDY    77  77 100 SW10      29.85F
HARLINGEN      PTCLDY    77  75  93 SE12      29.83F
*HEBBRONVILLE    N/A     74  71  92 SE10      29.84F
MCALLEN        CLOUDY    77  73  87 SE12      29.82F
*WESLACO       PTCLDY    76  72  89 SE9       29.82F
FALFURRIAS     CLOUDY    74  72  93 E7        29.83F
EDINBURG       MOCLDY    75  72  89 SE8       29.82F
*ZAPATA        CLOUDY    75  70  83 SE8       29.80F
$$

TXZ213>215-236>238-242>244-246-247-251-254-255-070800-
CMAN STATIONS

STATION/POSITION TIME  TEMP    WIND        PRES    WAVE
                       AIR SEA DIR/SP/G            HT/PER
                 (UTC) (F)     (DEG/KT/KT) (MB)    (FT/S)
$$

GMZ080-GMZ150>470-070800-
OFFSHORE BUOY REPORTS

STATION/POSITION TIME  TEMP    WIND        PRES    WAVE
                       AIR SEA DIR/SP/G            HT/PER
                 (UTC) (F)     (DEG/KT/KT) (MB)    (FT/S)
$$


USA.gov is the U.S. government's official web portal to all federal, state and local government web resources and services.